Weather History for KSMQ - October, 2013

Change the Weather History Date:

Sunday, October 6, 2013

  Actual Average Record
Temperature  
Mean Temperature 67 °F -  
Max Temperature 71 °F 68 °F - (-1)
Min Temperature 64 °F 44 °F - (-1)
Cooling Degree Days 2    
Growing Degree Days 17 (Base 50)    
Moisture  
Dew Point 65 °F    
Average Humidity 91    
Maximum Humidity 100    
Minimum Humidity 87    
Precipitation  
Precipitation 0.00 in - - ()
Sea Level Pressure  
Sea Level Pressure 30.04 in    
Wind  
Wind Speed 1 mph (East)    
Max Wind Speed 7 mph    
Max Gust Speed -    
Visibility 5 miles    
Events      
Averages and records for this station are not official NWS values.
T = Trace of Precipitation, MM = Missing Value Source: NWS Daily Summary

Daily Weather History Graph

Daily Weather History Graph

Search for Another Location

Airport or City:

Trip Planner

Search our weather history database for the weather conditions in past years. The results will help you decide how hot, cold, wet, or windy it might be!

Date:

Astronomy

Oct. 06, 2013 Rise Set
Actual Time 7:00 AM EDT 6:32 PM EDT
Civil Twilight 6:33 AM EDT 6:59 PM EDT
Nautical Twilight 6:01 AM EDT 7:31 PM EDT
Astronomical Twilight 5:29 AM EDT 8:02 PM EDT
Moon 8:42 AM EDT (10/6) 7:29 PM EDT (10/6)
Length of Visible Light 12h 26m
Length of Day
11h 31m
Waxing Crescent, 3% of the Moon is Illuminated
Oct 6
Waxing Crescent
Oct 11
First Quarter
Oct 18
Full
Oct 26
Last Quarter
Nov 3
New

Hourly Weather History & Observations

Time (EDT) Temp. Dew Point Humidity Pressure Visibility Wind Dir Wind Speed Gust Speed Precip Events Conditions
12:33 AM 66.2 °F 62.6 °F 88% 30.07 in 6.0 mi Calm Calm - 0.00 in   Overcast
12:53 AM 66.0 °F 63.0 °F 90% 30.06 in 5.0 mi Calm Calm - 0.00 in   Overcast
1:53 AM 66.0 °F 63.0 °F 90% 30.06 in 6.0 mi Calm Calm - N/A   Overcast
2:53 AM 66.0 °F 63.0 °F 90% 30.04 in 6.0 mi Calm Calm - N/A   Overcast
3:53 AM 66.0 °F 63.0 °F 90% 30.04 in 5.0 mi Calm Calm - N/A   Overcast
4:53 AM 64.9 °F 63.0 °F 93% 30.04 in 6.0 mi Calm Calm - N/A   Overcast
5:36 AM 64.4 °F 64.4 °F 100% 30.05 in 4.0 mi Calm Calm - N/A   Overcast
5:53 AM 64.9 °F 64.0 °F 97% 30.05 in 3.0 mi Calm Calm - N/A   Overcast
6:06 AM 64.4 °F 64.4 °F 100% 30.05 in 2.5 mi Calm Calm - N/A   Overcast
6:13 AM 66.2 °F 64.4 °F 94% 30.05 in 3.0 mi Calm Calm - N/A   Overcast
6:53 AM 66.0 °F 64.0 °F 93% 30.05 in 5.0 mi Calm Calm - N/A   Overcast
7:00 AM 66.2 °F 64.4 °F 94% 30.05 in 6.0 mi Calm Calm - N/A   Overcast
7:53 AM 66.0 °F 64.0 °F 93% 30.06 in 6.0 mi Calm Calm - N/A   Overcast
8:14 AM 66.2 °F 64.4 °F 94% 30.06 in 2.0 mi Calm Calm - N/A   Overcast
8:21 AM 66.2 °F 64.4 °F 94% 30.06 in 1.8 mi Calm Calm - N/A   Overcast
8:28 AM 66.2 °F 64.4 °F 94% 30.06 in 2.5 mi Calm Calm - N/A   Overcast
8:38 AM 66.2 °F 64.4 °F 94% 30.07 in 3.0 mi Variable 4.6 mph - N/A   Overcast
8:53 AM 66.0 °F 64.0 °F 93% 30.07 in 6.0 mi Calm Calm - N/A   Overcast
9:53 AM 66.9 °F 64.9 °F 93% 30.07 in 8.0 mi Calm Calm - N/A   Overcast
10:53 AM 69.1 °F 64.9 °F 87% 30.08 in 6.0 mi East 4.6 mph - N/A   Overcast
11:53 AM 69.1 °F 64.9 °F 87% 30.07 in 6.0 mi Variable 3.5 mph - N/A   Overcast
12:53 PM 69.1 °F 66.0 °F 90% 30.06 in 4.0 mi Calm Calm - N/A   Overcast
1:31 PM 69.8 °F 66.2 °F 88% 30.04 in 5.0 mi Variable 3.5 mph - N/A   Overcast
1:53 PM 70.0 °F 66.0 °F 87% 30.04 in 5.0 mi Calm Calm - N/A   Overcast
2:53 PM 69.1 °F 66.0 °F 90% 30.03 in 4.0 mi East 6.9 mph - N/A   Overcast
3:00 PM 69.8 °F 66.2 °F 88% 30.03 in 4.0 mi Variable 5.8 mph - N/A   Overcast
3:53 PM 70.0 °F 66.0 °F 87% 30.03 in 4.0 mi Variable 5.8 mph - N/A   Overcast
4:53 PM 70.0 °F 66.0 °F 87% 30.01 in 5.0 mi East 5.8 mph - N/A   Overcast
5:00 PM 69.8 °F 66.2 °F 88% 30.01 in 5.0 mi ENE 5.8 mph - N/A   Overcast
5:53 PM 70.0 °F 66.0 °F 87% 30.01 in 5.0 mi East 4.6 mph - N/A   Overcast
6:37 PM 69.8 °F 66.2 °F 88% 30.01 in 6.0 mi East 5.8 mph - N/A   Overcast
6:53 PM 69.1 °F 66.0 °F 90% 30.01 in 7.0 mi Variable 4.6 mph - N/A   Overcast
7:53 PM 69.1 °F 66.9 °F 93% 30.02 in 6.0 mi Calm Calm - N/A   Overcast
8:53 PM 70.0 °F 66.9 °F 90% 30.01 in 6.0 mi East 4.6 mph - N/A   Overcast
9:25 PM 69.8 °F 66.2 °F 88% 30.01 in 6.0 mi East 3.5 mph - N/A   Overcast
9:53 PM 70.0 °F 66.0 °F 87% 30.01 in 5.0 mi Calm Calm - N/A   Overcast
10:12 PM 69.8 °F 66.2 °F 88% 30.01 in 6.0 mi Calm Calm - N/A   Overcast
10:53 PM 68.0 °F 66.0 °F 93% 30.01 in 5.0 mi Calm Calm - N/A   Mostly Cloudy
11:53 PM 66.9 °F 64.0 °F 90% 30.00 in 6.0 mi Calm Calm - N/A   Partly Cloudy